Simultaneous Nadir Overpasses (SNOs) Predictions

Prediction of SNOs between GOES-16 and LANDSAT-8 Satellite Orbit:

Table of predicted SNOs for the next 14.0 days since TLE Epoch: 11/16/2024
Index Date Time (GOES-16) GOES-16 Lat,Lon LANDSAT-8 Lat,Lon Distance(km) Time Diff (sec)
1 11/17/2024 03:09:39 0.03, -75.17 0.14, -74.68 56.51 80
2 11/19/2024 02:57:30 0.02, -75.18 0.74, -71.73 391.84 80
3 11/19/2024 15:18:46 -0.02, -75.20 0.37, -76.88 191.53 80
4 11/21/2024 15:09:17 -0.01, -75.22 -0.27, -73.94 145.16 80
5 11/22/2024 03:30:42 0.01, -75.19 -0.82, -79.13 447.84 80
6 11/23/2024 14:57:08 -0.01, -75.24 -0.93, -70.99 482.89 80
7 11/24/2024 03:18:32 0.01, -75.21 -0.21, -76.18 109.83 80
8 11/26/2024 03:03:42 0.01, -75.24 0.43, -73.23 229.12 80
9 11/26/2024 15:24:58 -0.01, -75.28 0.66, -78.39 353.49 80
10 11/28/2024 15:12:47 -0.00, -75.31 0.04, -75.43 13.94 80
